Cancun, Mexico

8:37 PM on March 24, 2017 (GMT +0000)
Cancun International

Weather History for MMUN - February, 2013

Change the Weather History Date:

Saturday, February 16, 2013

  Actual Average Record
Temperature  
Mean Temperature 72 °F -  
Max Temperature 80 °F 83 °F 89 °F (2003)
Min Temperature 62 °F 66 °F 57 °F (2014)
Cooling Degree Days 7    
Growing Degree Days 22 (Base 50)    
Moisture  
Dew Point 63 °F    
Average Humidity 73    
Maximum Humidity 94    
Minimum Humidity 56    
Precipitation  
Precipitation 0.00 in - - ()
Sea Level Pressure  
Sea Level Pressure 30.06 in    
Wind  
Wind Speed 8 mph ()    
Max Wind Speed 17 mph    
Max Gust Speed 29 mph    
Visibility 6.8 miles    
Events      
Averages and records for this station are not official NWS values.
T = Trace of Precipitation, MM = Missing Value Source: Averaged Metar Reports

Daily Weather History Graph

Daily Weather History Graph

Search for Another Location

Airport or City:

Trip Planner

Search our weather history database for the weather conditions in past years. The results will help you decide how hot, cold, wet, or windy it might be!

Date:

Astronomy

Feb. 16, 2013 Rise Set
Actual Time 6:16 AM CST 5:46 PM CST
Civil Twilight 5:54 AM CST 6:09 PM CST
Nautical Twilight 5:28 AM CST 6:35 PM CST
Astronomical Twilight 5:02 AM CST 7:01 PM CST
Moon 10:24 AM CST (2/16) 11:44 PM CST (2/16)
Length of Visible Light 12h 14m
Length of Day
11h 29m
Waxing Crescent, 39% of the Moon is Illuminated
Feb 16
Waxing Crescent
Feb 17
First Quarter
Feb 25
Full
Mar 4
Last Quarter
Mar 11
New

Hourly Weather History & Observations

Time (CST) Temp. Heat Index Dew Point Humidity Pressure Visibility Wind Dir Wind Speed Gust Speed Precip Events Conditions
12:42 AM 73.4 °F - 71.6 °F 94% 29.95 in 6.0 mi NW 5.8 mph - N/A   Mostly Cloudy
1:48 AM 71.6 °F - 69.8 °F 94% 29.94 in 6.0 mi NW 4.6 mph - N/A   Mostly Cloudy
2:45 AM 71.6 °F - 69.8 °F 94% 29.93 in 6.0 mi NNW 6.9 mph - N/A   Mostly Cloudy
3:46 AM 71.6 °F - 69.8 °F 94% 29.94 in 6.0 mi NNW 4.6 mph - N/A   Mostly Cloudy
4:42 AM 71.6 °F - 69.8 °F 94% 29.95 in 6.0 mi NNW 6.9 mph - N/A   Mostly Cloudy
5:48 AM 71.6 °F - 69.8 °F 94% 29.96 in 6.0 mi NNW 6.9 mph - N/A   Mostly Cloudy
6:43 AM 69.8 °F - 68.0 °F 94% 29.99 in 7.0 mi NW 5.8 mph - N/A   Mostly Cloudy
7:56 AM 73.4 °F - 69.8 °F 88% 30.02 in 7.0 mi NNW 10.4 mph - N/A   Mostly Cloudy
8:41 AM 77.0 °F - 69.8 °F 78% 30.04 in 7.0 mi NNW 16.1 mph - N/A   Mostly Cloudy
9:43 AM 75.2 °F - 66.2 °F 73% 30.08 in 7.0 mi NW 16.1 mph - N/A   Mostly Cloudy
10:40 AM 78.8 °F - 62.6 °F 57% 30.08 in 7.0 mi NNW 15.0 mph - N/A   Mostly Cloudy
11:48 AM 80.6 °F 82.3 °F 64.4 °F 58% 30.07 in 7.0 mi NNW 16.1 mph - N/A   Mostly Cloudy
12:40 PM 78.8 °F - 64.4 °F 61% 30.06 in 7.0 mi NW 17.3 mph - N/A   Mostly Cloudy
1:46 PM 78.8 °F - 62.6 °F 57% 30.06 in 7.0 mi NNW 16.1 mph - N/A   Mostly Cloudy
2:43 PM 75.2 °F - 60.8 °F 61% 30.06 in 7.0 mi NNW 16.1 mph 28.8 mph N/A   Mostly Cloudy
3:44 PM 73.4 °F - 59.0 °F 61% 30.07 in 7.0 mi North 16.1 mph - N/A   Mostly Cloudy
4:42 PM 73.4 °F - 59.0 °F 61% 30.09 in 7.0 mi North 12.7 mph - N/A   Mostly Cloudy
5:42 PM 71.6 °F - 55.4 °F 57% 30.10 in 7.0 mi NNW 12.7 mph - N/A   Mostly Cloudy
6:41 PM 69.8 °F - 53.6 °F 56% 30.12 in 7.0 mi NNW 9.2 mph - N/A   Scattered Clouds
7:43 PM 68.0 °F - 55.4 °F 64% 30.14 in 7.0 mi NNW 8.1 mph - N/A   Partly Cloudy
8:40 PM 68.0 °F - 53.6 °F 60% 30.16 in 7.0 mi NNW 9.2 mph - N/A   Partly Cloudy
9:48 PM 66.2 °F - 53.6 °F 64% 30.18 in 7.0 mi NW 11.5 mph - N/A   Partly Cloudy
10:47 PM 64.4 °F - 53.6 °F 68% 30.18 in 7.0 mi NW 5.8 mph - N/A   Partly Cloudy
11:47 PM 62.6 °F - 53.6 °F 72% 30.15 in 7.0 mi NW 5.8 mph - N/A   Clear